Lid_Strength_Index
1 0 0 0 -0 -0 0 -0 -0 -1 -1 -0 -1 -0 -0 -0 -1 -0 -1 -0 -0 -0 -0 -0 0 -0 0 0 -0 0 1 1 3 1 -0 -1 -1 -0 -1 -0 0 0 1
1 0 0 0 0 0 0 -0 -1 -0 -1 -1 -1 -0 -0 -0 -0 -0 0 -0 0 0 0 0 0 0 0 -0 0 0 0 0 1 2 0 1 0 -1 -1 0 1 1 1
1 1 1 1 0 0 0 -0 -0 -0 -0 -0 -1 -0 -0 -0 -0 -0 -0 -0 -0 -0 0 0 0 0 0 0 0 1 -0 0 0 1 1 0 0 -0 0 0 1 1 2
1 1 1 1 1 0 0 -0 -0 -0 -0 -0 -0 -0 -1 -1 -0 -0 -0 -0 -0 -0 -0 -0 -0 0 0 0 0 0 0 1 0 1 1 1 1 0 0 1 1 2 2
1 1 1 1 0 0 0 0 -0 -0 -0 -0 -0 -0 -0 -0 -0 -0 -0 -0 -0 0 -0 -0 -0 -0 1 0 0 0 0 1 1 2 2 1 2 2 2 0 1 1 2
1 1 1 1 1 0 0 0 0 0 -0 -0 0 0 0 0 2 3 0 0 -0 0 1 0 -0 0 0 2 3 3 0 1 1 2 1 2 1 1 1 1 1 2 3
2 1 1 1 1 1 0 0 1 0 0 0 0 0 0 -0 3 3 2 -0 -0 0 0 0 0 0 0 -0 2 3 4 5 3 0 1 1 1 1 1 2 1 2 2
1 2 1 1 1 1 1 1 1 0 1 1 0 0 0 0 4 4 3 -0 0 -0 -0 -0 0 -0 -0 -0 -0 0 0 -0 1 0 -0 -0 -0 -0 -0 0 1 1 4
2 2 1 1 1 1 2 1 1 0 1 1 0 0 1 0 7 6 4 0 1 0 -0 -0 -0 -0 6 5 0 1 1 3 7 7 7 8 7 7 5 1 1 2 4
2 2 1 1 1 2 1 2 1 1 1 1 1 1 3 3 8 7 4 0 1 1 0 2 7 5 7 7 2 1 2 2 4 6 5 5 5 5 6 3 2 2 5
1 1 1 1 1 1 1 1 1 1 1 2 3 3 3 4 6 8 7 1 1 1 1 2 3 8 7 7 6 1 2 4 6 6 6 7 8 8 8 7 6 6 6
1 1 1 1 2 2 2 2 2 2 3 4 5 6 5 5 7 7 7 6 4 1 2 5 7 9 9 8 5 8 8 7 7 7 8 9 10 10 9 9 8 7 7
2 3 3 4 3 2 1 2 2 2 4 4 4 5 6 6 6 8 8 7 6 5 5 7 9 9 9 8 8 8 7 6 6 7 8 9 8 9 8 8 8 8 6
3 4 4 5 6 5 5 4 2 2 3 4 4 5 6 6 6 6 6 7 7 6 6 6 6 7 7 6 6 5 5 4 4 6 8 8 8 8 8 8 9 8 8
5 5 5 5 6 6 8 8 6 7 7 2 3 3 4 5 6 10 9 6 6 7 7 6 6 6 7 6 6 6 6 5 6 8 8 9 9 9 9 7 6 6 7
4 4 4 4 5 6 6 7 11 11 12 12 12 6 6 10 11 12 12 12 11 11 6 7 7 7 7 7 7 7 6 6 7 7 7 8 8 8 8 7 6 5 7
4 5 5 6 6 6 6 5 6 8 12 12 13 13 12 12 13 13 12 11 10 8 4 5 5 5 5 5 6 6 7 6 4 5 5 7 7 6 8 6 5 4 4
4 6 4 5 5 5 5 5 5 4 4 5 11 11 13 13 13 13 12 9 4 5 4 4 5 5 5 6 7 6 7 7 7 7 7 5 5 4 4 4 4 3 3
3 3 3 3 4 4 3 4 4 4 5 4 4 8 9 12 12 11 10 2 2 3 3 3 3 4 5 4 5 5 5 4 4 3 3 3 2 2 3 2 2 5 3
1 3 2 1 2 2 2 2 2 2 2 3 3 3 3 4 1 0 0 0 1 1 1 1 1 1 1 2 2 2 3 3 3 3 3 2 2 2 2 2 2 2 2
1 1 1 1 1 1 1 1 1 1 1 2 2 2 6 1 0 0 0 0 -0 -0 -0 -0 0 1 1 1 1 2 2 3 3 2 2 2 2 2 2 2 2 2 2
0 1 1 1 1 1 1 0 1 0 0 0 0 2 8 2 1 2 1 -0 -0 -1 -1 -1 -1 -0 0 1 1 2 3 3 3 3 3 3 2 3 2 2 2 2 2
0 1 1 1 1 1 1 1 1 1 1 1 0 1 2 2 2 1 1 0 0 -0 -0 -0 -1 -1 -0 0 1 1 2 2 2 2 3 3 3 3 2 3 2 2 2
1 1 1 1 1 1 1 1 1 3 1 1 1 1 0 0 0 1 1 0 -0 -0 -0 -1 -1 -1 -1 -0 0 0 0 1 1 1 2 2 2 4 1 2 2 3 3
0 1 1 1 1 1 1 1 1 1 1 1 1 0 0 0 0 -0 1 1 0 0 0 -1 -1 -1 -1 -1 -0 -0 4 7 1 4 0 1 1 1 2 2 2 2 3
0 0 1 1 1 1 1 1 1 1 1 1 0 0 0 0 0 0 0 1 2 1 1 0 -0 -0 -1 -1 -1 3 10 11 5 10 1 1 2 2 2 2 2 2 2